Location: B?ogocice
(50.2413°N, 20.2361°E)
Time: 17:19:03
(UTC+00:00)

SAR-Lupe-4 - Pass Details

Date: 17 September 2024
Orbit: 476 x 483 km, 98.1° (Epoch: 03 October)

Event Time Altitude Azimuth Distance (km) Brightness Sun altitude
Rises 03:17:52 0° 3° (N) 2,557 7.5 -10.3°
Reaches altitude 10° 03:20:12 10° 350° (N) 1,671 6.4 -10.0°
Maximum altitude 03:23:06 24° 295° (WNW) 1,049 4.8 -9.5°
Enters shadow 03:25:35 12° 245° (WSW) 1,518 5.4 -9.1°
